Time,TemperatureF,DewpointF,PressureIn,WindDirection,WindDirectionDegrees,WindSpeedMPH,WindSpeedGustMPH,Humidity,HourlyPrecipIn,Conditions,Clouds,dailyrainin,SoftwareType,DateUTC
2013-09-05 00:00:00,75.7,63.1,30.03,SSE,151,0.0,1.0,65,0.00,,FEW180,0.00,VWS V14.01,2013-09-05 05:00:00,
2013-09-05 00:01:00,75.6,63.0,30.03,SSE,153,1.0,1.0,65,0.00,,SCT200,0.00,VWS V14.01,2013-09-05 05:01:00,
2013-09-05 00:05:00,75.6,63.0,30.03,ESE,103,0.0,3.0,65,0.00,,FEW180,0.00,VWS V14.01,2013-09-05 05:05:00,
2013-09-05 00:06:00,75.6,63.0,30.03,ESE,103,0.0,0.0,65,0.00,,SCT200,0.00,VWS V14.01,2013-09-05 05:06:00,
2013-09-05 00:10:00,75.7,63.1,30.03,South,190,1.0,2.0,65,0.00,,FEW180,0.00,VWS V14.01,2013-09-05 05:10:00,
2013-09-05 00:11:00,75.7,63.1,30.03,SE,136,1.0,1.0,65,0.00,,SCT200,0.00,VWS V14.01,2013-09-05 05:11:00,
2013-09-05 00:15:00,75.6,63.0,30.03,SSW,193,0.0,2.0,65,0.00,,FEW180,0.00,VWS V14.01,2013-09-05 05:15:00,
2013-09-05 00:16:00,75.6,63.0,30.03,SSW,193,0.0,0.0,65,0.00,,SCT200,0.00,VWS V14.01,2013-09-05 05:16:00,
2013-09-05 00:20:00,75.4,62.8,30.03,SSE,158,1.0,1.0,65,0.00,,FEW180,0.00,VWS V14.01,2013-09-05 05:20:00,
2013-09-05 00:21:00,75.4,62.8,30.04,SSW,207,1.0,2.0,65,0.00,,SCT200,0.00,VWS V14.01,2013-09-05 05:21:00,
2013-09-05 00:25:00,75.3,63.2,30.03,SSE,152,0.0,2.0,66,0.00,,FEW180,0.00,VWS V14.01,2013-09-05 05:25:00,
2013-09-05 00:26:00,75.3,63.2,30.03,SSE,152,1.0,1.0,66,0.00,,SCT200,0.00,VWS V14.01,2013-09-05 05:26:00,
2013-09-05 00:30:00,75.2,63.1,30.03,SSE,152,0.0,2.0,66,0.00,,FEW180,0.00,VWS V14.01,2013-09-05 05:30:00,
2013-09-05 00:31:00,75.2,63.1,30.03,SSE,153,0.0,0.0,66,0.00,,SCT200,0.00,VWS V14.01,2013-09-05 05:31:00,
2013-09-05 00:35:00,75.2,63.1,30.03,SSE,153,0.0,1.0,66,0.00,,FEW180,0.00,VWS V14.01,2013-09-05 05:35:00,
2013-09-05 00:36:00,75.1,63.0,30.03,SSE,153,0.0,0.0,66,0.00,,FEW150,0.00,VWS V14.01,2013-09-05 05:36:00,
2013-09-05 00:40:00,75.1,63.4,30.04,SSE,154,0.0,0.0,67,0.00,,FEW180,0.00,VWS V14.01,2013-09-05 05:40:00,
2013-09-05 00:41:00,75.1,63.4,30.04,SSE,155,0.0,0.0,67,0.00,,FEW150,0.00,VWS V14.01,2013-09-05 05:41:00,
2013-09-05 00:45:00,74.8,63.1,30.04,South,172,0.0,0.0,67,0.00,,FEW180,0.00,VWS V14.01,2013-09-05 05:45:00,
2013-09-05 00:46:00,74.8,63.1,30.04,South,172,0.0,0.0,67,0.00,,FEW150,0.00,VWS V14.01,2013-09-05 05:46:00,
2013-09-05 00:50:00,74.7,63.0,30.03,SE,131,0.0,0.0,67,0.00,,FEW180,0.00,VWS V14.01,2013-09-05 05:50:00,
2013-09-05 00:51:00,74.7,63.0,30.03,SE,131,0.0,0.0,67,0.00,,FEW150,0.00,VWS V14.01,2013-09-05 05:51:00,
2013-09-05 00:55:00,74.6,62.9,30.04,SE,135,0.0,1.0,67,0.00,,FEW180,0.00,VWS V14.01,2013-09-05 05:55:00,
2013-09-05 00:56:00,74.6,62.9,30.03,SE,136,0.0,0.0,67,0.00,,FEW150,0.00,VWS V14.01,2013-09-05 05:56:00,
2013-09-05 01:00:00,74.5,63.3,30.03,SSE,148,0.0,1.0,68,0.00,,FEW180,0.00,VWS V14.01,2013-09-05 06:00:00,
2013-09-05 01:01:00,74.5,63.3,30.03,SSE,148,0.0,0.0,68,0.00,,FEW150,0.00,VWS V14.01,2013-09-05 06:01:00,
2013-09-05 01:05:00,74.4,63.2,30.03,SE,131,0.0,1.0,68,0.00,,FEW180,0.00,VWS V14.01,2013-09-05 06:05:00,
2013-09-05 01:06:00,74.4,63.2,30.03,SE,131,0.0,0.0,68,0.00,,FEW150,0.00,VWS V14.01,2013-09-05 06:06:00,
2013-09-05 01:10:00,74.3,63.1,30.03,SE,134,0.0,1.0,68,0.00,,FEW180,0.00,VWS V14.01,2013-09-05 06:10:00,
2013-09-05 01:11:00,74.3,63.1,30.03,SE,134,0.0,0.0,68,0.00,,FEW150,0.00,VWS V14.01,2013-09-05 06:11:00,
2013-09-05 01:15:00,74.2,63.4,30.03,SE,139,0.0,1.0,69,0.00,,FEW180,0.00,VWS V14.01,2013-09-05 06:15:00,
2013-09-05 01:16:00,74.2,63.4,30.03,SE,139,0.0,0.0,69,0.00,,FEW150,0.00,VWS V14.01,2013-09-05 06:16:00,
2013-09-05 01:20:00,74.2,63.4,30.03,SSE,155,0.0,1.0,69,0.00,,FEW180,0.00,VWS V14.01,2013-09-05 06:20:00,
2013-09-05 01:21:00,74.2,63.4,30.03,SSE,155,0.0,0.0,69,0.00,,FEW150,0.00,VWS V14.01,2013-09-05 06:21:00,
2013-09-05 01:25:00,74.1,63.3,30.03,SSE,155,0.0,2.0,69,0.00,,FEW180,0.00,VWS V14.01,2013-09-05 06:25:00,
2013-09-05 01:26:00,74.1,63.3,30.03,SSE,155,0.0,0.0,69,0.00,,FEW150,0.00,VWS V14.01,2013-09-05 06:26:00,
2013-09-05 01:30:00,74.1,63.3,30.03,SSE,156,0.0,1.0,69,0.00,,FEW150,0.00,VWS V14.01,2013-09-05 06:30:00,
2013-09-05 01:35:00,74.1,63.3,30.03,SSE,162,1.0,2.0,69,0.00,,SCT150,0.00,VWS V14.01,2013-09-05 06:35:00,
2013-09-05 01:40:00,74.2,63.4,30.03,SSE,155,0.0,2.0,69,0.00,,SCT150,0.00,VWS V14.01,2013-09-05 06:40:00,
2013-09-05 01:45:00,74.2,63.0,30.03,ESE,103,0.0,4.0,68,0.00,,SCT150,0.00,VWS V14.01,2013-09-05 06:45:00,
2013-09-05 01:50:00,74.3,63.1,30.03,ESE,123,1.0,3.0,68,0.00,,SCT150,0.00,VWS V14.01,2013-09-05 06:50:00,
2013-09-05 01:55:00,74.4,63.2,30.03,ESE,120,3.0,3.0,68,0.00,,SCT150,0.00,VWS V14.01,2013-09-05 06:55:00,
2013-09-05 02:00:00,74.4,63.2,30.03,SE,139,0.0,2.0,68,0.00,,SCT150,0.00,VWS V14.01,2013-09-05 07:00:00,
2013-09-05 02:05:00,74.3,63.1,30.03,SE,125,1.0,3.0,68,0.00,,SCT150,0.00,VWS V14.01,2013-09-05 07:05:00,
2013-09-05 02:10:00,74.2,63.4,30.03,SSE,156,0.0,3.0,69,0.00,,SCT150,0.00,VWS V14.01,2013-09-05 07:10:00,
2013-09-05 02:15:00,74.2,63.4,30.03,ESE,106,2.0,4.0,69,0.00,,SCT150,0.00,VWS V14.01,2013-09-05 07:15:00,
2013-09-05 02:20:00,74.2,63.4,30.03,SSE,149,1.0,2.0,69,0.00,,SCT150,0.00,VWS V14.01,2013-09-05 07:20:00,
2013-09-05 02:25:00,73.9,63.1,30.03,South,181,0.0,2.0,69,0.00,,SCT150,0.00,VWS V14.01,2013-09-05 07:25:00,
2013-09-05 02:30:00,73.7,62.9,30.04,East,80,0.0,1.0,69,0.00,,SCT150,0.00,VWS V14.01,2013-09-05 07:30:00,
2013-09-05 02:35:00,73.6,63.2,30.04,East,82,0.0,1.0,70,0.00,,FEW200,0.00,VWS V14.01,2013-09-05 07:35:00,
2013-09-05 02:40:00,73.4,63.0,30.04,SSE,165,0.0,1.0,70,0.00,,FEW200,0.00,VWS V14.01,2013-09-05 07:40:00,
2013-09-05 02:45:00,73.2,63.2,30.03,South,188,0.0,2.0,71,0.00,,FEW200,0.00,VWS V14.01,2013-09-05 07:45:00,
2013-09-05 02:50:00,73.1,63.2,30.03,South,170,1.0,2.0,71,0.00,,FEW200,0.00,VWS V14.01,2013-09-05 07:50:00,
2013-09-05 02:55:00,73.0,63.0,30.03,SSW,194,2.0,3.0,71,0.00,,FEW200,0.00,VWS V14.01,2013-09-05 07:55:00,
2013-09-05 03:00:00,73.1,63.2,30.03,SE,143,0.0,3.0,71,0.00,,FEW200,0.00,VWS V14.01,2013-09-05 08:00:00,
2013-09-05 03:05:00,73.1,63.2,30.03,SE,146,0.0,1.0,71,0.00,,FEW200,0.00,VWS V14.01,2013-09-05 08:05:00,
2013-09-05 03:10:00,73.1,63.2,30.03,South,171,1.0,2.0,71,0.00,,FEW200,0.00,VWS V14.01,2013-09-05 08:10:00,
2013-09-05 03:15:00,73.1,63.2,30.03,SSE,153,1.0,2.0,71,0.00,,FEW200,0.00,VWS V14.01,2013-09-05 08:15:00,
2013-09-05 03:20:00,73.2,63.2,30.03,South,179,2.0,3.0,71,0.00,,FEW200,0.00,VWS V14.01,2013-09-05 08:20:00,
2013-09-05 03:25:00,73.3,63.3,30.03,South,172,2.0,3.0,71,0.00,,FEW200,0.00,VWS V14.01,2013-09-05 08:25:00,
2013-09-05 03:30:00,73.4,63.4,30.02,ENE,77,3.0,5.0,71,0.00,,FEW200,0.00,VWS V14.01,2013-09-05 08:30:00,
2013-09-05 03:35:00,73.5,63.5,30.02,SE,143,1.0,4.0,71,0.00,,FEW250,0.00,VWS V14.01,2013-09-05 08:35:00,
2013-09-05 03:40:00,73.5,63.5,30.02,SSE,148,2.0,4.0,71,0.00,,FEW250,0.00,VWS V14.01,2013-09-05 08:40:00,
2013-09-05 03:45:00,73.5,63.5,30.02,SSE,163,2.0,3.0,71,0.00,,FEW250,0.00,VWS V14.01,2013-09-05 08:45:00,
2013-09-05 03:50:00,73.3,63.3,30.03,SSE,161,1.0,2.0,71,0.00,,FEW250,0.00,VWS V14.01,2013-09-05 08:50:00,
2013-09-05 03:55:00,73.1,63.5,30.03,SSE,160,1.0,2.0,72,0.00,,FEW250,0.00,VWS V14.01,2013-09-05 08:55:00,
2013-09-05 04:00:00,73.0,63.5,30.02,South,186,1.0,3.0,72,0.00,,FEW250,0.00,VWS V14.01,2013-09-05 09:00:00,
2013-09-05 04:05:00,72.8,63.3,30.03,South,183,2.0,3.0,72,0.00,,FEW250,0.00,VWS V14.01,2013-09-05 09:05:00,
2013-09-05 04:10:00,72.5,63.4,30.03,South,174,3.0,3.0,73,0.00,,FEW250,0.00,VWS V14.01,2013-09-05 09:10:00,
2013-09-05 04:15:00,72.3,63.6,30.03,SSE,164,0.0,2.0,74,0.00,,FEW250,0.00,VWS V14.01,2013-09-05 09:15:00,
2013-09-05 04:20:00,72.0,63.3,30.02,SSE,158,0.0,2.0,74,0.00,,FEW250,0.00,VWS V14.01,2013-09-05 09:20:00,
2013-09-05 04:25:00,71.7,63.4,30.02,South,173,1.0,1.0,75,0.00,,FEW250,0.00,VWS V14.01,2013-09-05 09:25:00,
2013-09-05 04:30:00,71.5,63.2,30.02,South,173,0.0,1.0,75,0.00,,FEW250,0.00,VWS V14.01,2013-09-05 09:30:00,
2013-09-05 04:35:00,71.2,63.3,30.02,SSE,166,1.0,2.0,76,0.00,,FEW180,0.00,VWS V14.01,2013-09-05 09:35:00,
2013-09-05 04:40:00,70.9,63.0,30.03,SSE,150,1.0,1.0,76,0.00,,FEW180,0.00,VWS V14.01,2013-09-05 09:40:00,
2013-09-05 04:45:00,70.9,63.0,30.02,SSE,156,1.0,2.0,76,0.00,,FEW180,0.00,VWS V14.01,2013-09-05 09:45:00,
2013-09-05 04:50:00,70.8,63.2,30.03,SSE,158,1.0,3.0,77,0.00,,FEW180,0.00,VWS V14.01,2013-09-05 09:50:00,
2013-09-05 04:55:00,70.7,63.1,30.03,SE,130,0.0,1.0,77,0.00,,FEW180,0.00,VWS V14.01,2013-09-05 09:55:00,
2013-09-05 05:00:00,70.6,63.0,30.03,SE,131,0.0,1.0,77,0.00,,FEW180,0.00,VWS V14.01,2013-09-05 10:00:00,
2013-09-05 05:05:00,70.5,63.0,30.03,SSE,158,1.0,2.0,77,0.00,,FEW180,0.00,VWS V14.01,2013-09-05 10:05:00,
2013-09-05 05:10:00,70.5,63.0,30.03,SSE,152,0.0,1.0,77,0.00,,FEW180,0.00,VWS V14.01,2013-09-05 10:10:00,
2013-09-05 05:15:00,70.5,63.0,30.03,SE,125,0.0,2.0,77,0.00,,FEW180,0.00,VWS V14.01,2013-09-05 10:15:00,
2013-09-05 05:20:00,70.4,62.8,30.03,SSE,148,1.0,1.0,77,0.00,,FEW180,0.00,VWS V14.01,2013-09-05 10:20:00,
2013-09-05 05:25:00,70.3,62.8,30.03,SSE,154,0.0,1.0,77,0.00,,FEW180,0.00,VWS V14.01,2013-09-05 10:25:00,
2013-09-05 05:30:00,70.2,62.7,30.03,SSE,158,0.0,1.0,77,0.00,,FEW180,0.00,VWS V14.01,2013-09-05 10:30:00,
2013-09-05 05:35:00,70.0,62.8,30.03,SSE,158,0.0,1.0,78,0.00,,CLR,0.00,VWS V14.01,2013-09-05 10:35:00,
2013-09-05 05:40:00,69.8,62.6,30.04,SSE,167,0.0,1.0,78,0.00,,CLR,0.00,VWS V14.01,2013-09-05 10:40:00,
2013-09-05 05:45:00,69.6,62.4,30.03,SSE,167,1.0,1.0,78,0.00,,CLR,0.00,VWS V14.01,2013-09-05 10:45:00,
2013-09-05 05:50:00,69.6,62.8,30.04,South,181,0.0,1.0,79,0.00,,CLR,0.00,VWS V14.01,2013-09-05 10:50:00,
2013-09-05 05:55:00,69.5,62.7,30.03,South,181,1.0,1.0,79,0.00,,CLR,0.00,VWS V14.01,2013-09-05 10:55:00,
2013-09-05 06:00:00,69.4,62.6,30.03,South,180,2.0,2.0,79,0.00,,CLR,0.00,VWS V14.01,2013-09-05 11:00:00,
2013-09-05 06:05:00,69.3,62.9,30.04,SSE,168,1.0,2.0,80,0.00,,CLR,0.00,VWS V14.01,2013-09-05 11:05:00,
2013-09-05 06:10:00,69.2,62.8,30.03,South,188,2.0,2.0,80,0.00,,CLR,0.00,VWS V14.01,2013-09-05 11:10:00,
2013-09-05 06:15:00,69.1,63.0,30.03,South,170,1.0,2.0,81,0.00,,CLR,0.00,VWS V14.01,2013-09-05 11:15:00,
2013-09-05 06:20:00,69.0,62.9,30.03,South,188,2.0,3.0,81,0.00,,CLR,0.00,VWS V14.01,2013-09-05 11:20:00,
2013-09-05 06:25:00,68.8,62.7,30.04,South,186,0.0,3.0,81,0.00,,CLR,0.00,VWS V14.01,2013-09-05 11:25:00,
2013-09-05 06:30:00,68.6,62.5,30.04,South,187,1.0,2.0,81,0.00,,CLR,0.00,VWS V14.01,2013-09-05 11:30:00,
2013-09-05 06:35:00,68.5,62.8,30.04,South,188,1.0,2.0,82,0.00,,CLR,0.00,VWS V14.01,2013-09-05 11:35:00,
2013-09-05 06:40:00,68.4,62.7,30.04,SSW,212,1.0,2.0,82,0.00,,CLR,0.00,VWS V14.01,2013-09-05 11:40:00,
2013-09-05 06:45:00,68.3,62.6,30.04,South,185,1.0,2.0,82,0.00,,CLR,0.00,VWS V14.01,2013-09-05 11:45:00,
2013-09-05 06:50:00,68.2,62.5,30.04,South,188,1.0,2.0,82,0.00,,CLR,0.00,VWS V14.01,2013-09-05 11:50:00,
2013-09-05 06:55:00,68.2,62.5,30.04,SSW,200,1.0,2.0,82,0.00,,CLR,0.00,VWS V14.01,2013-09-05 11:55:00,
2013-09-05 07:00:00,68.2,62.5,30.04,SSW,203,0.0,1.0,82,0.00,,CLR,0.00,VWS V14.01,2013-09-05 12:00:00,
2013-09-05 07:05:00,68.0,62.3,30.05,SSW,203,0.0,0.0,82,0.00,,CLR,0.00,VWS V14.01,2013-09-05 12:05:00,
2013-09-05 07:10:00,67.8,62.5,30.05,SSW,203,0.0,0.0,83,0.00,,CLR,0.00,VWS V14.01,2013-09-05 12:10:00,
2013-09-05 07:15:00,67.7,62.4,30.05,SSW,203,0.0,0.0,83,0.00,,CLR,0.00,VWS V14.01,2013-09-05 12:15:00,
2013-09-05 07:20:00,67.5,62.5,30.05,SSW,203,0.0,0.0,84,0.00,,CLR,0.00,VWS V14.01,2013-09-05 12:20:00,
2013-09-05 07:25:00,67.3,62.3,30.06,SSW,203,0.0,0.0,84,0.00,,CLR,0.00,VWS V14.01,2013-09-05 12:25:00,
2013-09-05 07:30:00,67.1,62.5,30.06,SSW,203,0.0,0.0,85,0.00,,CLR,0.00,VWS V14.01,2013-09-05 12:30:00,
2013-09-05 07:35:00,67.0,62.3,30.05,SSW,203,0.0,0.0,85,0.00,,SCT180,0.00,VWS V14.01,2013-09-05 12:35:00,
2013-09-05 07:40:00,67.2,62.5,30.05,SSW,203,0.0,0.0,85,0.00,,SCT180,0.00,VWS V14.01,2013-09-05 12:40:00,
2013-09-05 07:45:00,67.7,63.0,30.05,SSW,203,0.0,0.0,85,0.00,,SCT180,0.00,VWS V14.01,2013-09-05 12:45:00,
2013-09-05 07:50:00,68.5,63.5,30.05,SSW,203,0.0,0.0,84,0.00,,SCT180,0.00,VWS V14.01,2013-09-05 12:50:00,
2013-09-05 07:55:00,69.2,63.5,30.05,SSW,203,0.0,0.0,82,0.00,,SCT180,0.00,VWS V14.01,2013-09-05 12:55:00,
2013-09-05 08:00:00,69.9,63.5,30.05,SSE,165,0.0,3.0,80,0.00,,SCT180,0.00,VWS V14.01,2013-09-05 13:00:00,
2013-09-05 08:05:00,70.3,63.8,30.05,SSW,200,1.0,2.0,80,0.00,,SCT180,0.00,VWS V14.01,2013-09-05 13:05:00,
2013-09-05 08:10:00,70.4,63.9,30.05,SSW,193,1.0,2.0,80,0.00,,SCT180,0.00,VWS V14.01,2013-09-05 13:10:00,
2013-09-05 08:15:00,70.8,64.0,30.05,South,181,0.0,2.0,79,0.00,,SCT180,0.00,VWS V14.01,2013-09-05 13:15:00,
2013-09-05 08:20:00,71.4,64.2,30.05,SSW,197,1.0,2.0,78,0.00,,SCT180,0.00,VWS V14.01,2013-09-05 13:20:00,
2013-09-05 08:25:00,71.9,64.3,30.05,SSE,166,0.0,2.0,77,0.00,,SCT180,0.00,VWS V14.01,2013-09-05 13:25:00,
2013-09-05 08:30:00,72.4,64.4,30.05,South,186,2.0,2.0,76,0.00,,SCT180,0.00,VWS V14.01,2013-09-05 13:30:00,
2013-09-05 08:35:00,72.9,64.5,30.05,ESE,111,2.0,5.0,75,0.00,,SCT200,0.00,VWS V14.01,2013-09-05 13:35:00,
2013-09-05 08:40:00,73.4,65.0,30.05,SSE,153,1.0,3.0,75,0.00,,SCT200,0.00,VWS V14.01,2013-09-05 13:40:00,
2013-09-05 08:45:00,74.2,65.4,30.05,SW,223,3.0,3.0,74,0.00,,SCT200,0.00,VWS V14.01,2013-09-05 13:45:00,
2013-09-05 08:50:00,74.7,65.5,30.05,SE,136,3.0,3.0,73,0.00,,SCT200,0.00,VWS V14.01,2013-09-05 13:50:00,
2013-09-05 08:55:00,74.9,65.3,30.05,SSW,203,4.0,6.0,72,0.00,,SCT200,0.00,VWS V14.01,2013-09-05 13:55:00,
2013-09-05 09:00:00,75.4,65.3,30.05,SSE,166,1.0,4.0,71,0.00,,SCT200,0.00,VWS V14.01,2013-09-05 14:00:00,
2013-09-05 09:05:00,75.9,65.4,30.06,SW,231,3.0,4.0,70,0.00,,SCT200,0.00,VWS V14.01,2013-09-05 14:05:00,
2013-09-05 09:10:00,76.2,65.3,30.06,ESE,108,2.0,4.0,69,0.00,,SCT200,0.00,VWS V14.01,2013-09-05 14:10:00,
2013-09-05 09:15:00,76.9,66.0,30.06,SSW,193,1.0,4.0,69,0.00,,SCT200,0.00,VWS V14.01,2013-09-05 14:15:00,
2013-09-05 09:20:00,77.5,65.7,30.07,ESE,122,0.0,4.0,67,0.00,,SCT200,0.00,VWS V14.01,2013-09-05 14:20:00,
2013-09-05 09:25:00,78.2,65.9,30.07,ESE,118,1.0,3.0,66,0.00,,SCT200,0.00,VWS V14.01,2013-09-05 14:25:00,
2013-09-05 09:30:00,78.6,66.3,30.07,South,188,0.0,1.0,66,0.00,,SCT200,0.00,VWS V14.01,2013-09-05 14:30:00,
2013-09-05 09:34:00,79.0,66.2,30.07,SSE,160,1.0,3.0,65,0.00,,BKN220,0.00,VWS V14.01,2013-09-05 14:34:00,
2013-09-05 09:35:00,79.1,66.8,30.07,SSE,150,1.0,3.0,66,0.00,,SCT220,0.00,VWS V14.01,2013-09-05 14:35:00,
2013-09-05 09:39:00,79.3,66.5,30.07,SSW,195,0.0,4.0,65,0.00,,BKN220,0.00,VWS V14.01,2013-09-05 14:39:00,
2013-09-05 09:40:00,79.4,66.6,30.07,ESE,113,1.0,4.0,65,0.00,,SCT220,0.00,VWS V14.01,2013-09-05 14:40:00,
2013-09-05 09:44:00,79.8,67.0,30.07,South,180,1.0,2.0,65,0.00,,BKN220,0.00,VWS V14.01,2013-09-05 14:44:00,
2013-09-05 09:45:00,79.9,66.2,30.07,ESE,105,1.0,2.0,63,0.00,,SCT220,0.00,VWS V14.01,2013-09-05 14:45:00,
2013-09-05 09:49:00,80.0,66.3,30.07,SSW,200,1.0,3.0,63,0.00,,BKN220,0.00,VWS V14.01,2013-09-05 14:49:00,
2013-09-05 09:50:00,80.2,66.9,30.07,South,169,1.0,3.0,64,0.00,,SCT220,0.00,VWS V14.01,2013-09-05 14:50:00,
2013-09-05 09:54:00,80.9,66.7,30.07,ESE,121,1.0,2.0,62,0.00,,BKN220,0.00,VWS V14.01,2013-09-05 14:54:00,
2013-09-05 09:55:00,81.0,66.8,30.07,SSW,205,1.0,2.0,62,0.00,,SCT220,0.00,VWS V14.01,2013-09-05 14:55:00,
2013-09-05 09:59:00,81.3,67.1,30.07,SW,229,0.0,2.0,62,0.00,,BKN220,0.00,VWS V14.01,2013-09-05 14:59:00,
2013-09-05 10:00:00,81.4,66.7,30.07,South,170,4.0,4.0,61,0.00,,SCT220,0.00,VWS V14.01,2013-09-05 15:00:00,
2013-09-05 10:04:00,81.7,66.9,30.07,SE,131,0.0,5.0,61,0.00,,BKN220,0.00,VWS V14.01,2013-09-05 15:04:00,
2013-09-05 10:05:00,81.8,67.1,30.07,SSE,152,0.0,5.0,61,0.00,,SCT220,0.00,VWS V14.01,2013-09-05 15:05:00,
2013-09-05 10:09:00,82.1,66.4,30.07,NNE,24,2.0,6.0,59,0.00,,BKN220,0.00,VWS V14.01,2013-09-05 15:09:00,
2013-09-05 10:10:00,82.1,66.4,30.07,ESE,113,1.0,6.0,59,0.00,,SCT220,0.00,VWS V14.01,2013-09-05 15:10:00,
2013-09-05 10:14:00,82.1,66.8,30.07,SE,127,1.0,3.0,60,0.00,,BKN220,0.00,VWS V14.01,2013-09-05 15:14:00,
2013-09-05 10:15:00,82.0,66.8,30.07,ESE,120,1.0,3.0,60,0.00,,SCT220,0.00,VWS V14.01,2013-09-05 15:15:00,
2013-09-05 10:19:00,81.9,66.7,30.07,SSE,151,2.0,4.0,60,0.00,,BKN220,0.00,VWS V14.01,2013-09-05 15:19:00,
2013-09-05 10:20:00,82.0,67.2,30.07,SSE,163,2.0,5.0,61,0.00,,SCT220,0.00,VWS V14.01,2013-09-05 15:20:00,
2013-09-05 10:24:00,82.4,66.7,30.07,SSE,167,4.0,7.0,59,0.00,,BKN220,0.00,VWS V14.01,2013-09-05 15:24:00,
2013-09-05 10:25:00,82.4,66.7,30.07,SW,221,3.0,7.0,59,0.00,,SCT220,0.00,VWS V14.01,2013-09-05 15:25:00,
2013-09-05 10:29:00,82.3,66.6,30.07,SE,135,2.0,5.0,59,0.00,,BKN220,0.00,VWS V14.01,2013-09-05 15:29:00,
2013-09-05 10:30:00,82.3,66.6,30.07,SE,134,1.0,5.0,59,0.00,,SCT220,0.00,VWS V14.01,2013-09-05 15:30:00,
2013-09-05 10:34:00,82.4,66.7,30.07,SE,124,3.0,5.0,59,0.00,,BKN220,0.00,VWS V14.01,2013-09-05 15:34:00,
2013-09-05 10:35:00,82.4,66.7,30.07,SE,141,2.0,6.0,59,0.00,,SCT220,0.00,VWS V14.01,2013-09-05 15:35:00,
2013-09-05 10:39:00,82.7,66.9,30.07,South,177,2.0,4.0,59,0.00,,BKN220,0.00,VWS V14.01,2013-09-05 15:39:00,
2013-09-05 10:40:00,82.9,67.1,30.08,ESE,113,2.0,4.0,59,0.00,,SCT220,0.00,VWS V14.01,2013-09-05 15:40:00,
2013-09-05 10:44:00,83.1,67.3,30.07,SSE,156,2.0,5.0,59,0.00,,BKN220,0.00,VWS V14.01,2013-09-05 15:44:00,
2013-09-05 10:45:00,83.1,66.8,30.07,SSE,153,3.0,5.0,58,0.00,,SCT220,0.00,VWS V14.01,2013-09-05 15:45:00,
2013-09-05 10:49:00,83.5,66.7,30.07,South,181,7.0,7.0,57,0.00,,BKN220,0.00,VWS V14.01,2013-09-05 15:49:00,
2013-09-05 10:50:00,83.5,67.2,30.07,South,187,3.0,7.0,58,0.00,,SCT220,0.00,VWS V14.01,2013-09-05 15:50:00,
2013-09-05 10:54:00,83.8,67.0,30.07,SW,216,3.0,6.0,57,0.00,,BKN220,0.00,VWS V14.01,2013-09-05 15:54:00,
2013-09-05 10:55:00,83.9,67.1,30.07,SSE,166,6.0,6.0,57,0.00,,SCT220,0.00,VWS V14.01,2013-09-05 15:55:00,
2013-09-05 10:59:00,84.1,67.2,30.07,ESE,113,3.0,6.0,57,0.00,,BKN220,0.00,VWS V14.01,2013-09-05 15:59:00,
2013-09-05 11:00:00,84.2,67.3,30.07,South,187,4.0,6.0,57,0.00,,SCT220,0.00,VWS V14.01,2013-09-05 16:00:00,
2013-09-05 11:04:00,84.4,67.5,30.07,South,181,2.0,7.0,57,0.00,,BKN220,0.00,VWS V14.01,2013-09-05 16:04:00,
2013-09-05 11:05:00,84.5,67.6,30.07,ESE,118,3.0,7.0,57,0.00,,SCT220,0.00,VWS V14.01,2013-09-05 16:05:00,
2013-09-05 11:09:00,84.8,67.4,30.07,ESE,110,4.0,5.0,56,0.00,,BKN220,0.00,VWS V14.01,2013-09-05 16:09:00,
2013-09-05 11:10:00,84.8,66.8,30.07,SSE,165,4.0,7.0,55,0.00,,SCT220,0.00,VWS V14.01,2013-09-05 16:10:00,
2013-09-05 11:14:00,84.7,67.3,30.07,ESE,107,5.0,7.0,56,0.00,,BKN220,0.00,VWS V14.01,2013-09-05 16:14:00,
2013-09-05 11:15:00,84.8,67.4,30.07,South,188,3.0,7.0,56,0.00,,SCT220,0.00,VWS V14.01,2013-09-05 16:15:00,
2013-09-05 11:19:00,85.3,68.3,30.07,SE,124,1.0,7.0,57,0.00,,BKN220,0.00,VWS V14.01,2013-09-05 16:19:00,
2013-09-05 11:20:00,85.5,68.0,30.07,SE,136,2.0,7.0,56,0.00,,SCT220,0.00,VWS V14.01,2013-09-05 16:20:00,
2013-09-05 11:24:00,86.0,68.0,30.07,SSE,158,6.0,7.0,55,0.00,,BKN220,0.00,VWS V14.01,2013-09-05 16:24:00,
2013-09-05 11:25:00,86.1,67.5,30.06,SSW,194,2.0,7.0,54,0.00,,SCT220,0.00,VWS V14.01,2013-09-05 16:25:00,
2013-09-05 11:29:00,86.0,67.4,30.06,South,169,2.0,10.0,54,0.00,,BKN220,0.00,VWS V14.01,2013-09-05 16:29:00,
2013-09-05 11:30:00,86.0,68.0,30.06,SSE,153,3.0,10.0,55,0.00,,SCT220,0.00,VWS V14.01,2013-09-05 16:30:00,
2013-09-05 11:34:00,86.1,67.5,30.06,SSE,161,5.0,9.0,54,0.00,,FEW220,0.00,VWS V14.01,2013-09-05 16:34:00,
2013-09-05 11:35:00,86.1,67.5,30.06,South,176,5.0,9.0,54,0.00,,SCT220,0.00,VWS V14.01,2013-09-05 16:35:00,
2013-09-05 11:39:00,86.1,67.0,30.06,SSW,200,6.0,8.0,53,0.00,,FEW220,0.00,VWS V14.01,2013-09-05 16:39:00,
2013-09-05 11:40:00,86.0,67.4,30.07,NNW,338,5.0,9.0,54,0.00,,SCT220,0.00,VWS V14.01,2013-09-05 16:40:00,
2013-09-05 11:44:00,86.3,68.2,30.07,SSE,163,2.0,5.0,55,0.00,,FEW220,0.00,VWS V14.01,2013-09-05 16:44:00,
2013-09-05 11:45:00,86.6,68.0,30.06,SW,218,0.0,5.0,54,0.00,,SCT220,0.00,VWS V14.01,2013-09-05 16:45:00,
2013-09-05 11:49:00,87.2,68.5,30.07,SSE,147,2.0,4.0,54,0.00,,FEW220,0.00,VWS V14.01,2013-09-05 16:49:00,
2013-09-05 11:50:00,87.2,68.5,30.06,SSE,153,2.0,4.0,54,0.00,,SCT220,0.00,VWS V14.01,2013-09-05 16:50:00,
2013-09-05 11:54:00,87.5,68.8,30.06,SE,127,1.0,3.0,54,0.00,,FEW220,0.00,VWS V14.01,2013-09-05 16:54:00,
2013-09-05 11:55:00,87.7,69.0,30.06,ESE,107,4.0,4.0,54,0.00,,SCT220,0.00,VWS V14.01,2013-09-05 16:55:00,
2013-09-05 11:59:00,87.6,68.4,30.06,North,356,1.0,6.0,53,0.00,,FEW220,0.00,VWS V14.01,2013-09-05 16:59:00,
2013-09-05 12:00:00,87.7,69.0,30.06,SSE,160,6.0,9.0,54,0.00,,SCT220,0.00,VWS V14.01,2013-09-05 17:00:00,
2013-09-05 12:04:00,87.9,68.7,30.06,West,260,9.0,9.0,53,0.00,,FEW220,0.00,VWS V14.01,2013-09-05 17:04:00,
2013-09-05 12:05:00,87.8,68.0,30.06,South,173,4.0,10.0,52,0.00,,SCT220,0.00,VWS V14.01,2013-09-05 17:05:00,
2013-09-05 12:09:00,88.1,67.7,30.06,South,169,3.0,6.0,51,0.00,,FEW220,0.00,VWS V14.01,2013-09-05 17:09:00,
2013-09-05 12:10:00,88.1,68.3,30.06,SSW,194,3.0,7.0,52,0.00,,SCT220,0.00,VWS V14.01,2013-09-05 17:10:00,
2013-09-05 12:14:00,88.2,67.8,30.06,SSE,148,3.0,7.0,51,0.00,,FEW220,0.00,VWS V14.01,2013-09-05 17:14:00,
2013-09-05 12:15:00,88.2,67.8,30.06,SE,143,8.0,9.0,51,0.00,,SCT220,0.00,VWS V14.01,2013-09-05 17:15:00,
2013-09-05 12:19:00,88.0,68.2,30.06,ESE,114,2.0,8.0,52,0.00,,FEW220,0.00,VWS V14.01,2013-09-05 17:19:00,
2013-09-05 12:20:00,88.1,67.7,30.06,South,177,5.0,8.0,51,0.00,,SCT220,0.00,VWS V14.01,2013-09-05 17:20:00,
2013-09-05 12:24:00,88.6,68.2,30.06,SSE,155,1.0,6.0,51,0.00,,FEW220,0.00,VWS V14.01,2013-09-05 17:24:00,
2013-09-05 12:25:00,88.7,68.3,30.06,SW,232,2.0,6.0,51,0.00,,SCT220,0.00,VWS V14.01,2013-09-05 17:25:00,
2013-09-05 12:29:00,89.0,68.0,30.06,SSW,199,4.0,7.0,50,0.00,,FEW220,0.00,VWS V14.01,2013-09-05 17:29:00,
2013-09-05 12:30:00,89.0,67.4,30.06,South,185,3.0,7.0,49,0.00,,SCT220,0.00,VWS V14.01,2013-09-05 17:30:00,
2013-09-05 12:34:00,88.9,67.9,30.06,SSE,167,1.0,6.0,50,0.00,,FEW220,0.00,VWS V14.01,2013-09-05 17:34:00,
2013-09-05 12:35:00,89.0,69.1,30.06,NE,48,5.0,6.0,52,0.00,,SCT220,0.00,VWS V14.01,2013-09-05 17:35:00,
2013-09-05 12:39:00,89.4,67.7,30.05,SSE,152,2.0,5.0,49,0.00,,FEW220,0.00,VWS V14.01,2013-09-05 17:39:00,
2013-09-05 12:40:00,89.4,67.1,30.05,SSE,158,3.0,7.0,48,0.00,,SCT220,0.00,VWS V14.01,2013-09-05 17:40:00,
2013-09-05 12:44:00,89.4,67.1,30.05,ESE,106,1.0,3.0,48,0.00,,FEW220,0.00,VWS V14.01,2013-09-05 17:44:00,
2013-09-05 12:45:00,89.5,67.8,30.05,SSE,161,5.0,6.0,49,0.00,,SCT220,0.00,VWS V14.01,2013-09-05 17:45:00,
2013-09-05 12:49:00,89.6,67.3,30.05,SSW,193,3.0,7.0,48,0.00,,FEW220,0.00,VWS V14.01,2013-09-05 17:49:00,
2013-09-05 12:50:00,89.7,68.0,30.05,SSE,152,1.0,7.0,49,0.00,,SCT220,0.00,VWS V14.01,2013-09-05 17:50:00,
2013-09-05 12:54:00,89.9,68.8,30.05,North,1,2.0,2.0,50,0.00,,FEW220,0.00,VWS V14.01,2013-09-05 17:54:00,
2013-09-05 12:55:00,90.1,66.6,30.05,South,187,4.0,8.0,46,0.00,,SCT220,0.00,VWS V14.01,2013-09-05 17:55:00,
2013-09-05 12:59:00,90.4,66.8,30.05,ESE,103,4.0,6.0,46,0.00,,FEW220,0.00,VWS V14.01,2013-09-05 17:59:00,
2013-09-05 13:00:00,90.4,67.4,30.05,SE,135,1.0,6.0,47,0.00,,SCT220,0.00,VWS V14.01,2013-09-05 18:00:00,
2013-09-05 13:04:00,90.6,66.4,30.04,South,174,3.0,8.0,45,0.00,,FEW220,0.00,VWS V14.01,2013-09-05 18:04:00,
2013-09-05 13:05:00,90.6,67.0,30.04,NNE,18,3.0,8.0,46,0.00,,SCT220,0.00,VWS V14.01,2013-09-05 18:05:00,
2013-09-05 13:09:00,90.8,66.6,30.04,SSW,195,4.0,7.0,45,0.00,,FEW220,0.00,VWS V14.01,2013-09-05 18:09:00,
2013-09-05 13:10:00,90.7,65.8,30.04,SSW,192,1.0,7.0,44,0.00,,SCT220,0.00,VWS V14.01,2013-09-05 18:10:00,
2013-09-05 13:14:00,90.9,66.6,30.04,South,191,2.0,5.0,45,0.00,,FEW220,0.00,VWS V14.01,2013-09-05 18:14:00,
2013-09-05 13:15:00,91.0,67.4,30.04,South,183,6.0,6.0,46,0.00,,SCT220,0.00,VWS V14.01,2013-09-05 18:15:00,
2013-09-05 13:19:00,91.1,68.1,30.04,SW,233,4.0,8.0,47,0.00,,FEW220,0.00,VWS V14.01,2013-09-05 18:19:00,
2013-09-05 13:20:00,91.1,66.8,30.04,SSW,198,6.0,8.0,45,0.00,,SCT220,0.00,VWS V14.01,2013-09-05 18:20:00,
2013-09-05 13:24:00,91.4,66.4,30.04,SSE,167,3.0,7.0,44,0.00,,FEW220,0.00,VWS V14.01,2013-09-05 18:24:00,
2013-09-05 13:25:00,91.5,67.2,30.03,NE,56,4.0,7.0,45,0.00,,SCT220,0.00,VWS V14.01,2013-09-05 18:25:00,
2013-09-05 13:29:00,91.6,66.0,30.03,SSE,167,2.0,5.0,43,0.00,,FEW220,0.00,VWS V14.01,2013-09-05 18:29:00,
2013-09-05 13:30:00,91.6,67.3,30.03,NW,321,1.0,5.0,45,0.00,,SCT220,0.00,VWS V14.01,2013-09-05 18:30:00,
2013-09-05 13:34:00,91.9,66.9,30.03,SE,134,1.0,3.0,44,0.00,,SCT220,0.00,VWS V14.01,2013-09-05 18:34:00,
2013-09-05 13:35:00,92.0,67.6,30.03,ESE,107,2.0,3.0,45,0.00,,SCT220,0.00,VWS V14.01,2013-09-05 18:35:00,
2013-09-05 13:39:00,91.9,68.2,30.03,SE,131,2.0,4.0,46,0.00,,SCT220,0.00,VWS V14.01,2013-09-05 18:39:00,
2013-09-05 13:44:00,92.2,67.8,30.03,South,174,1.0,5.0,45,0.00,,SCT220,0.00,VWS V14.01,2013-09-05 18:44:00,
2013-09-05 13:45:00,92.3,66.6,30.03,South,170,2.0,5.0,43,0.00,,CLR,0.00,VWS V14.01,2013-09-05 18:45:00,
2013-09-05 13:49:00,92.5,67.4,30.03,ENE,77,1.0,2.0,44,0.00,,SCT220,0.00,VWS V14.01,2013-09-05 18:49:00,
2013-09-05 13:50:00,92.5,67.4,30.03,NNE,27,3.0,3.0,44,0.00,,CLR,0.00,VWS V14.01,2013-09-05 18:50:00,
2013-09-05 13:54:00,92.1,66.4,30.03,South,181,2.0,5.0,43,0.00,,SCT220,0.00,VWS V14.01,2013-09-05 18:54:00,
2013-09-05 13:55:00,92.0,66.3,30.02,ENE,66,2.0,5.0,43,0.00,,CLR,0.00,VWS V14.01,2013-09-05 18:55:00,
2013-09-05 13:59:00,92.2,66.5,30.02,NE,39,1.0,3.0,43,0.00,,SCT220,0.00,VWS V14.01,2013-09-05 18:59:00,
2013-09-05 14:00:00,92.2,65.8,30.02,SSE,154,0.0,3.0,42,0.00,,CLR,0.00,VWS V14.01,2013-09-05 19:00:00,
2013-09-05 14:04:00,92.7,66.9,30.02,East,87,2.0,4.0,43,0.00,,SCT220,0.00,VWS V14.01,2013-09-05 19:04:00,
2013-09-05 14:05:00,92.5,66.1,30.02,NE,39,2.0,5.0,42,0.00,,CLR,0.00,VWS V14.01,2013-09-05 19:05:00,
2013-09-05 14:09:00,92.0,66.3,30.03,South,177,3.0,4.0,43,0.00,,SCT220,0.00,VWS V14.01,2013-09-05 19:09:00,
2013-09-05 14:10:00,92.0,65.6,30.02,SSE,158,1.0,6.0,42,0.00,,CLR,0.00,VWS V14.01,2013-09-05 19:10:00,
2013-09-05 14:14:00,92.0,67.0,30.02,NE,39,2.0,3.0,44,0.00,,SCT220,0.00,VWS V14.01,2013-09-05 19:14:00,
2013-09-05 14:15:00,91.9,66.9,30.02,SE,143,3.0,4.0,44,0.00,,CLR,0.00,VWS V14.01,2013-09-05 19:15:00,
2013-09-05 14:19:00,92.5,66.1,30.02,ENE,75,3.0,7.0,42,0.00,,SCT220,0.00,VWS V14.01,2013-09-05 19:19:00,
2013-09-05 14:20:00,92.6,68.8,30.02,SSE,149,0.0,7.0,46,0.00,,CLR,0.00,VWS V14.01,2013-09-05 19:20:00,
2013-09-05 14:24:00,92.9,67.1,30.02,NNW,348,4.0,4.0,43,0.00,,SCT220,0.00,VWS V14.01,2013-09-05 19:24:00,
2013-09-05 14:25:00,92.8,66.4,30.02,NE,56,5.0,5.0,42,0.00,,CLR,0.00,VWS V14.01,2013-09-05 19:25:00,
2013-09-05 14:29:00,92.5,66.1,30.02,East,82,2.0,5.0,42,0.00,,SCT220,0.00,VWS V14.01,2013-09-05 19:29:00,
2013-09-05 14:30:00,92.3,65.9,30.02,East,82,2.0,5.0,42,0.00,,CLR,0.00,VWS V14.01,2013-09-05 19:30:00,
2013-09-05 14:34:00,92.0,66.3,30.01,WNW,286,1.0,5.0,43,0.00,,SCT220,0.00,VWS V14.01,2013-09-05 19:34:00,
2013-09-05 14:35:00,92.2,67.2,30.01,ENE,64,1.0,5.0,44,0.00,,CLR,0.00,VWS V14.01,2013-09-05 19:35:00,
2013-09-05 14:39:00,92.4,65.3,30.01,NNE,27,2.0,4.0,41,0.00,,SCT220,0.00,VWS V14.01,2013-09-05 19:39:00,
2013-09-05 14:40:00,92.4,66.7,30.01,NE,54,4.0,4.0,43,0.00,,CLR,0.00,VWS V14.01,2013-09-05 19:40:00,
2013-09-05 14:44:00,92.4,65.3,30.01,East,98,1.0,5.0,41,0.00,,SCT220,0.00,VWS V14.01,2013-09-05 19:44:00,
2013-09-05 14:45:00,92.4,67.3,30.01,NNW,330,2.0,5.0,44,0.00,,CLR,0.00,VWS V14.01,2013-09-05 19:45:00,
2013-09-05 14:49:00,92.7,66.9,30.01,SE,127,2.0,3.0,43,0.00,,SCT220,0.00,VWS V14.01,2013-09-05 19:49:00,
2013-09-05 14:50:00,92.6,67.5,30.01,SSE,163,1.0,3.0,44,0.00,,CLR,0.00,VWS V14.01,2013-09-05 19:50:00,
2013-09-05 14:54:00,92.7,65.6,30.01,ENE,75,1.0,2.0,41,0.00,,SCT220,0.00,VWS V14.01,2013-09-05 19:54:00,
2013-09-05 14:55:00,92.8,67.0,30.01,East,89,1.0,2.0,43,0.00,,CLR,0.00,VWS V14.01,2013-09-05 19:55:00,
2013-09-05 14:59:00,92.8,67.0,30.01,SE,134,1.0,4.0,43,0.00,,SCT220,0.00,VWS V14.01,2013-09-05 19:59:00,
2013-09-05 15:00:00,93.2,66.7,30.00,SE,131,3.0,5.0,42,0.00,,CLR,0.00,VWS V14.01,2013-09-05 20:00:00,
2013-09-05 15:03:00,93.2,66.7,30.00,ENE,66,2.0,5.0,42,0.00,,SCT220,0.00,VWS V14.01,2013-09-05 20:03:00,
2013-09-05 15:05:00,93.2,65.3,30.00,ESE,110,3.0,6.0,40,0.00,,CLR,0.00,VWS V14.01,2013-09-05 20:05:00,
2013-09-05 15:08:00,92.7,65.6,30.00,ESE,117,3.0,5.0,41,0.00,,SCT220,0.00,VWS V14.01,2013-09-05 20:08:00,
2013-09-05 15:10:00,92.8,67.0,30.00,NE,51,4.0,7.0,43,0.00,,CLR,0.00,VWS V14.01,2013-09-05 20:10:00,
2013-09-05 15:13:00,93.2,67.4,30.00,East,80,3.0,4.0,43,0.00,,SCT220,0.00,VWS V14.01,2013-09-05 20:13:00,
2013-09-05 15:18:00,93.2,66.0,30.00,South,176,2.0,2.0,41,0.00,,SCT220,0.00,VWS V14.01,2013-09-05 20:18:00,
2013-09-05 15:20:00,93.4,64.8,30.00,East,99,0.0,3.0,39,0.00,,CLR,0.00,VWS V14.01,2013-09-05 20:20:00,
2013-09-05 15:23:00,93.6,67.1,30.00,SSE,148,3.0,5.0,42,0.00,,SCT220,0.00,VWS V14.01,2013-09-05 20:23:00,
2013-09-05 15:25:00,93.5,65.6,30.00,South,179,1.0,8.0,40,0.00,,CLR,0.00,VWS V14.01,2013-09-05 20:25:00,
2013-09-05 15:28:00,93.3,65.4,30.00,SE,146,2.0,3.0,40,0.00,,SCT220,0.00,VWS V14.01,2013-09-05 20:28:00,
2013-09-05 15:30:00,93.2,66.7,30.00,SE,143,1.0,3.0,42,0.00,,CLR,0.00,VWS V14.01,2013-09-05 20:30:00,
2013-09-05 15:33:00,93.4,66.2,30.00,South,179,3.0,4.0,41,0.00,,BKN220,0.00,VWS V14.01,2013-09-05 20:33:00,
2013-09-05 15:35:00,93.6,64.9,30.00,SE,134,1.0,4.0,39,0.00,,CLR,0.00,VWS V14.01,2013-09-05 20:35:00,
2013-09-05 15:38:00,93.7,66.5,30.00,SE,125,2.0,4.0,41,0.00,,BKN220,0.00,VWS V14.01,2013-09-05 20:38:00,
2013-09-05 15:40:00,93.7,66.5,30.00,ENE,73,2.0,4.0,41,0.00,,CLR,0.00,VWS V14.01,2013-09-05 20:40:00,
2013-09-05 15:43:00,93.3,63.9,30.00,East,91,1.0,7.0,38,0.00,,BKN220,0.00,VWS V14.01,2013-09-05 20:43:00,
2013-09-05 15:45:00,93.0,65.8,30.00,NE,48,2.0,7.0,41,0.00,,CLR,0.00,VWS V14.01,2013-09-05 20:45:00,
2013-09-05 15:48:00,93.0,65.8,30.00,ESE,114,3.0,5.0,41,0.00,,BKN220,0.00,VWS V14.01,2013-09-05 20:48:00,
2013-09-05 15:50:00,93.3,66.1,30.00,ESE,107,2.0,5.0,41,0.00,,CLR,0.00,VWS V14.01,2013-09-05 20:50:00,
2013-09-05 15:53:00,93.5,65.6,30.00,SSE,155,2.0,5.0,40,0.00,,BKN220,0.00,VWS V14.01,2013-09-05 20:53:00,
2013-09-05 15:55:00,93.4,64.0,30.00,South,186,2.0,5.0,38,0.00,,CLR,0.00,VWS V14.01,2013-09-05 20:55:00,
2013-09-05 15:58:00,93.2,64.6,30.00,SE,142,1.0,4.0,39,0.00,,BKN220,0.00,VWS V14.01,2013-09-05 20:58:00,
2013-09-05 16:00:00,93.3,65.4,30.00,ESE,117,2.0,4.0,40,0.00,,CLR,0.00,VWS V14.01,2013-09-05 21:00:00,
2013-09-05 16:03:00,93.5,62.6,29.99,NE,37,3.0,9.0,36,0.00,,BKN220,0.00,VWS V14.01,2013-09-05 21:03:00,
2013-09-05 16:05:00,93.2,63.8,30.00,East,101,3.0,9.0,38,0.00,,CLR,0.00,VWS V14.01,2013-09-05 21:05:00,
2013-09-05 16:08:00,92.8,63.5,29.99,NE,54,2.0,4.0,38,0.00,,BKN220,0.00,VWS V14.01,2013-09-05 21:08:00,
2013-09-05 16:10:00,92.7,64.1,29.99,East,87,2.0,5.0,39,0.00,,CLR,0.00,VWS V14.01,2013-09-05 21:10:00,
2013-09-05 16:13:00,92.4,63.9,29.99,NE,53,4.0,5.0,39,0.00,,BKN220,0.00,VWS V14.01,2013-09-05 21:13:00,
2013-09-05 16:15:00,92.2,63.7,29.99,NE,39,2.0,5.0,39,0.00,,CLR,0.00,VWS V14.01,2013-09-05 21:15:00,
2013-09-05 16:18:00,92.3,64.5,29.99,East,97,2.0,3.0,40,0.00,,BKN220,0.00,VWS V14.01,2013-09-05 21:18:00,
2013-09-05 16:20:00,92.3,64.5,29.99,North,355,3.0,4.0,40,0.00,,CLR,0.00,VWS V14.01,2013-09-05 21:20:00,
2013-09-05 16:23:00,92.3,64.5,29.99,NE,46,1.0,5.0,40,0.00,,BKN220,0.00,VWS V14.01,2013-09-05 21:23:00,
2013-09-05 16:25:00,92.4,63.9,29.99,SE,141,1.0,5.0,39,0.00,,CLR,0.00,VWS V14.01,2013-09-05 21:25:00,
2013-09-05 16:28:00,92.6,64.1,29.99,North,10,1.0,2.0,39,0.00,,BKN220,0.00,VWS V14.01,2013-09-05 21:28:00,
2013-09-05 16:30:00,92.9,65.8,29.99,NNE,32,0.0,2.0,41,0.00,,CLR,0.00,VWS V14.01,2013-09-05 21:30:00,
2013-09-05 16:33:00,93.2,63.8,29.99,ESE,106,2.0,5.0,38,0.00,,SCT250,0.00,VWS V14.01,2013-09-05 21:33:00,
2013-09-05 16:35:00,93.2,63.8,29.99,SE,132,1.0,7.0,38,0.00,,CLR,0.00,VWS V14.01,2013-09-05 21:35:00,
2013-09-05 16:38:00,93.5,64.1,29.99,SE,129,5.0,8.0,38,0.00,,SCT250,0.00,VWS V14.01,2013-09-05 21:38:00,
2013-09-05 16:40:00,93.5,63.3,29.99,SSE,155,4.0,8.0,37,0.00,,CLR,0.00,VWS V14.01,2013-09-05 21:40:00,
2013-09-05 16:43:00,93.4,64.0,29.99,SSW,193,2.0,6.0,38,0.00,,SCT250,0.00,VWS V14.01,2013-09-05 21:43:00,
2013-09-05 16:45:00,93.4,62.5,29.99,SW,224,1.0,6.0,36,0.00,,CLR,0.00,VWS V14.01,2013-09-05 21:45:00,
2013-09-05 16:48:00,93.4,63.3,29.99,NE,46,2.0,5.0,37,0.00,,SCT250,0.00,VWS V14.01,2013-09-05 21:48:00,
2013-09-05 16:50:00,93.1,63.8,29.99,South,179,2.0,5.0,38,0.00,,CLR,0.00,VWS V14.01,2013-09-05 21:50:00,
2013-09-05 16:53:00,93.1,64.5,29.99,NW,304,1.0,4.0,39,0.00,,SCT250,0.00,VWS V14.01,2013-09-05 21:53:00,
2013-09-05 16:55:00,93.2,63.8,29.99,SE,134,2.0,4.0,38,0.00,,CLR,0.00,VWS V14.01,2013-09-05 21:55:00,
2013-09-05 16:58:00,93.3,63.9,29.99,NW,318,1.0,4.0,38,0.00,,SCT250,0.00,VWS V14.01,2013-09-05 21:58:00,
2013-09-05 17:00:00,93.3,63.9,29.98,East,98,1.0,4.0,38,0.00,,CLR,0.00,VWS V14.01,2013-09-05 22:00:00,
2013-09-05 17:03:00,93.4,65.5,29.98,East,91,0.0,2.0,40,0.00,,SCT250,0.00,VWS V14.01,2013-09-05 22:03:00,
2013-09-05 17:05:00,93.5,64.8,29.98,ESE,111,2.0,3.0,39,0.00,,CLR,0.00,VWS V14.01,2013-09-05 22:05:00,
2013-09-05 17:08:00,93.5,64.1,29.98,ESE,114,3.0,3.0,38,0.00,,SCT250,0.00,VWS V14.01,2013-09-05 22:08:00,
2013-09-05 17:10:00,93.2,63.1,29.98,ESE,105,1.0,4.0,37,0.00,,CLR,0.00,VWS V14.01,2013-09-05 22:10:00,
2013-09-05 17:13:00,92.9,64.3,29.98,East,98,1.0,3.0,39,0.00,,SCT250,0.00,VWS V14.01,2013-09-05 22:13:00,
2013-09-05 17:15:00,92.8,63.5,29.98,ENE,77,1.0,3.0,38,0.00,,CLR,0.00,VWS V14.01,2013-09-05 22:15:00,
2013-09-05 17:18:00,92.8,63.5,29.98,ESE,120,0.0,2.0,38,0.00,,SCT250,0.00,VWS V14.01,2013-09-05 22:18:00,
2013-09-05 17:20:00,92.7,63.4,29.98,East,96,2.0,2.0,38,0.00,,CLR,0.00,VWS V14.01,2013-09-05 22:20:00,
2013-09-05 17:23:00,92.4,63.9,29.98,SW,231,1.0,3.0,39,0.00,,SCT250,0.00,VWS V14.01,2013-09-05 22:23:00,
2013-09-05 17:25:00,92.4,64.6,29.98,ESE,112,0.0,3.0,40,0.00,,CLR,0.00,VWS V14.01,2013-09-05 22:25:00,
2013-09-05 17:28:00,92.6,63.3,29.98,SE,142,0.0,3.0,38,0.00,,SCT250,0.00,VWS V14.01,2013-09-05 22:28:00,
2013-09-05 17:30:00,92.8,64.2,29.98,ESE,123,2.0,3.0,39,0.00,,CLR,0.00,VWS V14.01,2013-09-05 22:30:00,
2013-09-05 17:33:00,92.8,64.2,29.98,South,180,2.0,5.0,39,0.00,,SCT250,0.00,VWS V14.01,2013-09-05 22:33:00,
2013-09-05 17:35:00,92.9,64.3,29.98,SE,132,2.0,5.0,39,0.00,,CLR,0.00,VWS V14.01,2013-09-05 22:35:00,
2013-09-05 17:38:00,92.8,63.5,29.98,East,101,2.0,5.0,38,0.00,,SCT250,0.00,VWS V14.01,2013-09-05 22:38:00,
2013-09-05 17:40:00,92.7,63.4,29.97,ESE,107,2.0,5.0,38,0.00,,CLR,0.00,VWS V14.01,2013-09-05 22:40:00,
2013-09-05 17:43:00,92.5,64.0,29.97,ESE,117,1.0,4.0,39,0.00,,SCT250,0.00,VWS V14.01,2013-09-05 22:43:00,
2013-09-05 17:45:00,92.5,64.7,29.97,SE,138,2.0,4.0,40,0.00,,CLR,0.00,VWS V14.01,2013-09-05 22:45:00,
2013-09-05 17:48:00,92.5,64.0,29.97,ESE,110,2.0,5.0,39,0.00,,SCT250,0.00,VWS V14.01,2013-09-05 22:48:00,
2013-09-05 17:50:00,92.4,63.9,29.97,SSE,167,1.0,5.0,39,0.00,,CLR,0.00,VWS V14.01,2013-09-05 22:50:00,
2013-09-05 17:53:00,92.4,63.9,29.97,SE,126,2.0,2.0,39,0.00,,SCT250,0.00,VWS V14.01,2013-09-05 22:53:00,
2013-09-05 17:55:00,92.3,64.5,29.97,SE,127,0.0,2.0,40,0.00,,CLR,0.00,VWS V14.01,2013-09-05 22:55:00,
2013-09-05 17:58:00,92.3,64.5,29.98,ESE,115,2.0,3.0,40,0.00,,SCT250,0.00,VWS V14.01,2013-09-05 22:58:00,
2013-09-05 18:00:00,92.1,64.3,29.97,ESE,114,3.0,4.0,40,0.00,,CLR,0.00,VWS V14.01,2013-09-05 23:00:00,
2013-09-05 18:03:00,91.9,64.9,29.98,SSE,160,1.0,2.0,41,0.00,,SCT250,0.00,VWS V14.01,2013-09-05 23:03:00,
2013-09-05 18:05:00,91.9,64.2,29.98,SE,129,0.0,2.0,40,0.00,,CLR,0.00,VWS V14.01,2013-09-05 23:05:00,
2013-09-05 18:08:00,91.7,64.0,29.97,East,86,1.0,3.0,40,0.00,,SCT250,0.00,VWS V14.01,2013-09-05 23:08:00,
2013-09-05 18:10:00,91.5,65.2,29.97,ESE,110,2.0,3.0,42,0.00,,CLR,0.00,VWS V14.01,2013-09-05 23:10:00,
2013-09-05 18:13:00,91.3,64.3,29.97,SSE,149,1.0,3.0,41,0.00,,SCT250,0.00,VWS V14.01,2013-09-05 23:13:00,
2013-09-05 18:15:00,91.2,64.2,29.97,ENE,77,0.0,4.0,41,0.00,,CLR,0.00,VWS V14.01,2013-09-05 23:15:00,
2013-09-05 18:18:00,91.2,64.9,29.97,ESE,120,1.0,1.0,42,0.00,,SCT250,0.00,VWS V14.01,2013-09-05 23:18:00,
2013-09-05 18:20:00,91.2,64.2,29.97,NE,48,4.0,4.0,41,0.00,,CLR,0.00,VWS V14.01,2013-09-05 23:20:00,
2013-09-05 18:23:00,91.1,64.8,29.97,ENE,77,1.0,4.0,42,0.00,,SCT250,0.00,VWS V14.01,2013-09-05 23:23:00,
2013-09-05 18:28:00,90.8,64.6,29.97,ESE,113,3.0,3.0,42,0.00,,SCT250,0.00,VWS V14.01,2013-09-05 23:28:00,
2013-09-05 18:30:00,90.6,64.4,29.97,South,172,1.0,3.0,42,0.00,,CLR,0.00,VWS V14.01,2013-09-05 23:30:00,
2013-09-05 18:33:00,90.5,64.3,29.97,NNW,333,2.0,3.0,42,0.00,,SCT250,0.00,VWS V14.01,2013-09-05 23:33:00,
2013-09-05 18:35:00,90.4,64.2,29.97,ESE,122,1.0,3.0,42,0.00,,CLR,0.00,VWS V14.01,2013-09-05 23:35:00,
2013-09-05 18:38:00,90.3,64.1,29.97,SE,138,1.0,2.0,42,0.00,,SCT250,0.00,VWS V14.01,2013-09-05 23:38:00,
2013-09-05 18:40:00,90.2,64.0,29.97,East,91,1.0,2.0,42,0.00,,CLR,0.00,VWS V14.01,2013-09-05 23:40:00,
2013-09-05 18:43:00,90.1,64.6,29.97,SSE,155,1.0,3.0,43,0.00,,SCT250,0.00,VWS V14.01,2013-09-05 23:43:00,
2013-09-05 18:45:00,90.0,63.8,29.97,SE,129,1.0,3.0,42,0.00,,CLR,0.00,VWS V14.01,2013-09-05 23:45:00,
2013-09-05 18:48:00,89.9,63.8,29.97,SSE,148,0.0,1.0,42,0.00,,SCT250,0.00,VWS V14.01,2013-09-05 23:48:00,
2013-09-05 18:50:00,89.8,63.7,29.97,SE,136,1.0,3.0,42,0.00,,CLR,0.00,VWS V14.01,2013-09-05 23:50:00,
2013-09-05 18:53:00,89.7,63.6,29.97,NE,44,3.0,3.0,42,0.00,,SCT250,0.00,VWS V14.01,2013-09-05 23:53:00,
2013-09-05 18:55:00,89.5,64.1,29.97,ESE,106,0.0,3.0,43,0.00,,CLR,0.00,VWS V14.01,2013-09-05 23:55:00,
2013-09-05 18:58:00,89.4,63.3,29.97,East,94,1.0,2.0,42,0.00,,SCT250,0.00,VWS V14.01,2013-09-05 23:58:00,
2013-09-05 19:00:00,89.2,63.1,29.97,SE,129,1.0,4.0,42,0.00,,CLR,0.00,VWS V14.01,2013-09-06 00:00:00,
2013-09-05 19:03:00,89.1,63.7,29.97,SE,136,0.0,2.0,43,0.00,,SCT250,0.00,VWS V14.01,2013-09-06 00:03:00,
2013-09-05 19:05:00,89.0,63.6,29.97,ENE,67,0.0,2.0,43,0.00,,CLR,0.00,VWS V14.01,2013-09-06 00:05:00,
2013-09-05 19:08:00,88.9,62.9,29.97,ESE,120,1.0,2.0,42,0.00,,FEW250,0.00,VWS V14.01,2013-09-06 00:08:00,
2013-09-05 19:10:00,88.8,63.4,29.97,NE,41,1.0,2.0,43,0.00,,CLR,0.00,VWS V14.01,2013-09-06 00:10:00,
2013-09-05 19:13:00,88.6,63.3,29.97,SE,141,0.0,1.0,43,0.00,,FEW250,0.00,VWS V14.01,2013-09-06 00:13:00,
2013-09-05 19:15:00,88.5,63.8,29.97,SE,141,0.0,1.0,44,0.00,,CLR,0.00,VWS V14.01,2013-09-06 00:15:00,
2013-09-05 19:18:00,88.3,63.7,29.97,SE,141,0.0,0.0,44,0.00,,FEW250,0.00,VWS V14.01,2013-09-06 00:18:00,
2013-09-05 19:20:00,88.1,63.5,29.97,SE,141,0.0,0.0,44,0.00,,CLR,0.00,VWS V14.01,2013-09-06 00:20:00,
2013-09-05 19:23:00,87.9,63.9,29.97,East,89,1.0,1.0,45,0.00,,FEW250,0.00,VWS V14.01,2013-09-06 00:23:00,
2013-09-05 19:25:00,87.6,63.7,29.97,South,169,0.0,1.0,45,0.00,,CLR,0.00,VWS V14.01,2013-09-06 00:25:00,
2013-09-05 19:28:00,87.4,63.5,29.97,SSE,148,0.0,4.0,45,0.00,,FEW250,0.00,VWS V14.01,2013-09-06 00:28:00,
2013-09-05 19:30:00,87.1,63.8,29.97,NE,53,4.0,4.0,46,0.00,,CLR,0.00,VWS V14.01,2013-09-06 00:30:00,
2013-09-05 19:33:00,86.9,64.3,29.97,NE,41,1.0,4.0,47,0.00,,FEW250,0.00,VWS V14.01,2013-09-06 00:33:00,
2013-09-05 19:35:00,86.7,64.1,29.97,ENE,63,1.0,4.0,47,0.00,,CLR,0.00,VWS V14.01,2013-09-06 00:35:00,
2013-09-05 19:38:00,86.5,63.9,29.97,East,98,1.0,2.0,47,0.00,,FEW250,0.00,VWS V14.01,2013-09-06 00:38:00,
2013-09-05 19:40:00,86.3,64.3,29.97,NNW,336,1.0,3.0,48,0.00,,CLR,0.00,VWS V14.01,2013-09-06 00:40:00,
2013-09-05 19:43:00,86.2,64.2,29.97,South,187,1.0,3.0,48,0.00,,FEW250,0.00,VWS V14.01,2013-09-06 00:43:00,
2013-09-05 19:45:00,86.0,64.6,29.97,SE,131,0.0,4.0,49,0.00,,CLR,0.00,VWS V14.01,2013-09-06 00:45:00,
2013-09-05 19:48:00,85.9,64.5,29.97,SE,136,1.0,1.0,49,0.00,,FEW250,0.00,VWS V14.01,2013-09-06 00:48:00,
2013-09-05 19:50:00,85.6,64.3,29.97,SE,125,0.0,2.0,49,0.00,,CLR,0.00,VWS V14.01,2013-09-06 00:50:00,
2013-09-05 19:53:00,85.5,64.2,29.97,SE,127,0.0,1.0,49,0.00,,FEW250,0.00,VWS V14.01,2013-09-06 00:53:00,
2013-09-05 19:55:00,85.3,64.0,29.97,SE,136,0.0,3.0,49,0.00,,CLR,0.00,VWS V14.01,2013-09-06 00:55:00,
2013-09-05 19:58:00,85.3,64.6,29.97,SE,132,0.0,1.0,50,0.00,,FEW250,0.00,VWS V14.01,2013-09-06 00:58:00,
2013-09-05 20:00:00,85.1,64.4,29.97,SE,136,1.0,2.0,50,0.00,,CLR,0.00,VWS V14.01,2013-09-06 01:00:00,
2013-09-05 20:03:00,84.9,64.2,29.97,East,93,1.0,1.0,50,0.00,,FEW250,0.00,VWS V14.01,2013-09-06 01:03:00,
2013-09-05 20:05:00,84.8,64.1,29.97,SE,131,0.0,1.0,50,0.00,,CLR,0.00,VWS V14.01,2013-09-06 01:05:00,
2013-09-05 20:08:00,84.6,63.9,29.97,SE,131,0.0,1.0,50,0.00,,FEW250,0.00,VWS V14.01,2013-09-06 01:08:00,
2013-09-05 20:10:00,84.5,63.8,29.97,SE,139,0.0,2.0,50,0.00,,CLR,0.00,VWS V14.01,2013-09-06 01:10:00,
2013-09-05 20:13:00,84.4,64.3,29.97,ENE,68,1.0,2.0,51,0.00,,FEW250,0.00,VWS V14.01,2013-09-06 01:13:00,
2013-09-05 20:15:00,84.2,64.1,29.97,SE,124,1.0,2.0,51,0.00,,CLR,0.00,VWS V14.01,2013-09-06 01:15:00,
2013-09-05 20:18:00,84.1,64.0,29.97,ESE,120,0.0,2.0,51,0.00,,FEW250,0.00,VWS V14.01,2013-09-06 01:18:00,
2013-09-05 20:20:00,84.0,63.9,29.97,ESE,120,0.0,2.0,51,0.00,,CLR,0.00,VWS V14.01,2013-09-06 01:20:00,
2013-09-05 20:23:00,83.9,63.8,29.97,ESE,120,0.0,0.0,51,0.00,,FEW250,0.00,VWS V14.01,2013-09-06 01:23:00,
2013-09-05 20:25:00,83.8,64.3,29.97,ESE,110,2.0,2.0,52,0.00,,CLR,0.00,VWS V14.01,2013-09-06 01:25:00,
2013-09-05 20:27:00,83.7,64.2,29.97,ESE,110,0.0,2.0,52,0.00,,FEW250,0.00,VWS V14.01,2013-09-06 01:27:00,
2013-09-05 20:30:00,83.5,64.0,29.97,SE,139,0.0,2.0,52,0.00,,CLR,0.00,VWS V14.01,2013-09-06 01:30:00,
2013-09-05 20:32:00,83.4,64.0,29.98,East,88,2.0,2.0,52,0.00,,FEW250,0.00,VWS V14.01,2013-09-06 01:32:00,
2013-09-05 20:35:00,83.4,64.0,29.98,East,84,0.0,2.0,52,0.00,,CLR,0.00,VWS V14.01,2013-09-06 01:35:00,
2013-09-05 20:37:00,83.3,63.9,29.98,East,83,0.0,0.0,52,0.00,,FEW250,0.00,VWS V14.01,2013-09-06 01:37:00,
2013-09-05 20:40:00,83.1,64.2,29.98,East,86,0.0,1.0,53,0.00,,CLR,0.00,VWS V14.01,2013-09-06 01:40:00,
2013-09-05 20:42:00,83.0,64.1,29.98,SE,131,1.0,2.0,53,0.00,,FEW250,0.00,VWS V14.01,2013-09-06 01:42:00,
2013-09-05 20:45:00,82.8,63.9,29.98,ESE,110,0.0,2.0,53,0.00,,CLR,0.00,VWS V14.01,2013-09-06 01:45:00,
2013-09-05 20:47:00,82.8,63.9,29.98,SE,131,1.0,2.0,53,0.00,,FEW250,0.00,VWS V14.01,2013-09-06 01:47:00,
2013-09-05 20:50:00,82.7,63.8,29.98,SE,127,1.0,2.0,53,0.00,,CLR,0.00,VWS V14.01,2013-09-06 01:50:00,
2013-09-05 20:52:00,82.6,63.8,29.98,SSE,152,0.0,1.0,53,0.00,,FEW250,0.00,VWS V14.01,2013-09-06 01:52:00,
2013-09-05 20:55:00,82.6,64.3,29.98,SSE,152,0.0,1.0,54,0.00,,CLR,0.00,VWS V14.01,2013-09-06 01:55:00,
2013-09-05 20:57:00,82.5,64.2,29.98,SSE,152,0.0,1.0,54,0.00,,FEW250,0.00,VWS V14.01,2013-09-06 01:57:00,
2013-09-05 21:00:00,82.3,64.5,29.98,SE,145,0.0,1.0,55,0.00,,CLR,0.00,VWS V14.01,2013-09-06 02:00:00,
2013-09-05 21:02:00,82.2,64.4,29.98,ESE,111,1.0,1.0,55,0.00,,FEW250,0.00,VWS V14.01,2013-09-06 02:02:00,
2013-09-05 21:05:00,82.3,64.5,29.98,ESE,115,0.0,2.0,55,0.00,,CLR,0.00,VWS V14.01,2013-09-06 02:05:00,
2013-09-05 21:07:00,82.3,64.5,29.98,East,98,3.0,3.0,55,0.00,,FEW250,0.00,VWS V14.01,2013-09-06 02:07:00,
2013-09-05 21:10:00,82.3,64.5,29.99,SSE,149,0.0,3.0,55,0.00,,CLR,0.00,VWS V14.01,2013-09-06 02:10:00,
2013-09-05 21:12:00,82.3,64.5,29.99,ENE,71,2.0,2.0,55,0.00,,FEW250,0.00,VWS V14.01,2013-09-06 02:12:00,
2013-09-05 21:15:00,82.2,65.0,29.99,North,354,0.0,3.0,56,0.00,,CLR,0.00,VWS V14.01,2013-09-06 02:15:00,
2013-09-05 21:17:00,82.2,65.0,29.99,SE,143,0.0,1.0,56,0.00,,FEW250,0.00,VWS V14.01,2013-09-06 02:17:00,
2013-09-05 21:20:00,82.2,65.0,29.99,ESE,108,0.0,2.0,56,0.00,,CLR,0.00,VWS V14.01,2013-09-06 02:20:00,
2013-09-05 21:22:00,82.1,64.9,29.99,ESE,103,1.0,2.0,56,0.00,,FEW250,0.00,VWS V14.01,2013-09-06 02:22:00,
2013-09-05 21:25:00,82.0,65.3,29.99,SE,127,1.0,2.0,57,0.00,,CLR,0.00,VWS V14.01,2013-09-06 02:25:00,
2013-09-05 21:27:00,82.0,65.3,29.99,ESE,121,1.0,2.0,57,0.00,,FEW250,0.00,VWS V14.01,2013-09-06 02:27:00,
2013-09-05 21:30:00,81.9,65.2,29.99,SE,139,3.0,3.0,57,0.00,,CLR,0.00,VWS V14.01,2013-09-06 02:30:00,
2013-09-05 21:32:00,82.0,65.3,29.99,SSW,205,1.0,4.0,57,0.00,,CLR,0.00,VWS V14.01,2013-09-06 02:32:00,
2013-09-05 21:35:00,82.0,65.3,29.99,SE,134,1.0,4.0,57,0.00,,CLR,0.00,VWS V14.01,2013-09-06 02:35:00,
2013-09-05 21:37:00,81.9,65.2,29.99,East,81,1.0,2.0,57,0.00,,CLR,0.00,VWS V14.01,2013-09-06 02:37:00,
2013-09-05 21:40:00,81.8,65.1,29.99,ESE,108,3.0,3.0,57,0.00,,CLR,0.00,VWS V14.01,2013-09-06 02:40:00,
2013-09-05 21:42:00,81.8,65.1,29.99,SE,129,1.0,3.0,57,0.00,,CLR,0.00,VWS V14.01,2013-09-06 02:42:00,
2013-09-05 21:45:00,81.8,65.6,29.99,SSW,212,3.0,3.0,58,0.00,,CLR,0.00,VWS V14.01,2013-09-06 02:45:00,
2013-09-05 21:47:00,81.8,65.6,29.99,SSE,167,1.0,4.0,58,0.00,,CLR,0.00,VWS V14.01,2013-09-06 02:47:00,
2013-09-05 21:50:00,81.7,65.5,29.99,SSE,158,2.0,4.0,58,0.00,,CLR,0.00,VWS V14.01,2013-09-06 02:50:00,
2013-09-05 21:52:00,81.6,65.4,29.99,ESE,110,1.0,2.0,58,0.00,,CLR,0.00,VWS V14.01,2013-09-06 02:52:00,
2013-09-05 21:55:00,81.5,65.3,29.99,SE,138,2.0,3.0,58,0.00,,CLR,0.00,VWS V14.01,2013-09-06 02:55:00,
2013-09-05 21:57:00,81.4,65.2,29.99,SE,131,1.0,2.0,58,0.00,,CLR,0.00,VWS V14.01,2013-09-06 02:57:00,
2013-09-05 22:00:00,81.3,65.1,29.99,SSW,203,2.0,2.0,58,0.00,,CLR,0.00,VWS V14.01,2013-09-06 03:00:00,
2013-09-05 22:02:00,81.3,65.1,29.99,ESE,117,2.0,3.0,58,0.00,,CLR,0.00,VWS V14.01,2013-09-06 03:02:00,
2013-09-05 22:05:00,81.3,65.6,29.99,SE,128,1.0,3.0,59,0.00,,CLR,0.00,VWS V14.01,2013-09-06 03:05:00,
2013-09-05 22:07:00,81.2,65.5,29.99,SSE,148,1.0,2.0,59,0.00,,CLR,0.00,VWS V14.01,2013-09-06 03:07:00,
2013-09-05 22:10:00,81.1,65.4,29.99,SE,131,2.0,3.0,59,0.00,,CLR,0.00,VWS V14.01,2013-09-06 03:10:00,
2013-09-05 22:12:00,81.0,65.3,29.99,East,91,3.0,4.0,59,0.00,,CLR,0.00,VWS V14.01,2013-09-06 03:12:00,
2013-09-05 22:15:00,81.0,65.3,29.99,ENE,58,1.0,4.0,59,0.00,,CLR,0.00,VWS V14.01,2013-09-06 03:15:00,
2013-09-05 22:17:00,80.9,65.2,30.00,NE,53,1.0,2.0,59,0.00,,CLR,0.00,VWS V14.01,2013-09-06 03:17:00,
2013-09-05 22:20:00,80.8,65.2,30.00,SE,138,1.0,3.0,59,0.00,,CLR,0.00,VWS V14.01,2013-09-06 03:20:00,
2013-09-05 22:22:00,80.8,65.2,30.00,SSE,156,0.0,3.0,59,0.00,,CLR,0.00,VWS V14.01,2013-09-06 03:22:00,
2013-09-05 22:25:00,80.7,65.5,30.00,SSW,208,1.0,3.0,60,0.00,,CLR,0.00,VWS V14.01,2013-09-06 03:25:00,
2013-09-05 22:27:00,80.7,65.5,30.00,East,92,1.0,2.0,60,0.00,,CLR,0.00,VWS V14.01,2013-09-06 03:27:00,
2013-09-05 22:30:00,80.6,65.4,30.00,ENE,75,2.0,3.0,60,0.00,,CLR,0.00,VWS V14.01,2013-09-06 03:30:00,
2013-09-05 22:32:00,80.5,65.3,30.01,North,1,0.0,3.0,60,0.00,,CLR,0.00,VWS V14.01,2013-09-06 03:32:00,
2013-09-05 22:35:00,80.4,65.7,30.00,ESE,113,1.0,3.0,61,0.00,,CLR,0.00,VWS V14.01,2013-09-06 03:35:00,
2013-09-05 22:37:00,80.3,65.6,30.00,ESE,120,0.0,1.0,61,0.00,,CLR,0.00,VWS V14.01,2013-09-06 03:37:00,
2013-09-05 22:42:00,80.0,65.8,30.00,SE,131,2.0,2.0,62,0.00,,CLR,0.00,VWS V14.01,2013-09-06 03:42:00,
2013-09-05 22:47:00,79.7,65.5,30.01,East,96,1.0,3.0,62,0.00,,CLR,0.00,VWS V14.01,2013-09-06 03:47:00,
2013-09-05 22:52:00,79.6,65.9,30.01,ESE,110,1.0,2.0,63,0.00,,CLR,0.00,VWS V14.01,2013-09-06 03:52:00,
2013-09-05 22:57:00,79.4,65.7,30.01,SSE,158,1.0,1.0,63,0.00,,CLR,0.00,VWS V14.01,2013-09-06 03:57:00,
2013-09-05 23:01:00,79.3,65.6,30.01,SSE,154,1.0,4.0,63,0.00,,CLR,0.00,VWS V14.01,2013-09-06 04:01:00,
2013-09-05 23:06:00,79.3,65.6,30.01,ESE,122,0.0,0.0,63,0.00,,CLR,0.00,VWS V14.01,2013-09-06 04:06:00,
2013-09-05 23:11:00,79.2,65.5,30.01,SE,132,1.0,1.0,63,0.00,,CLR,0.00,VWS V14.01,2013-09-06 04:11:00,
2013-09-05 23:16:00,79.1,65.4,30.01,East,91,2.0,2.0,63,0.00,,CLR,0.00,VWS V14.01,2013-09-06 04:16:00,
2013-09-05 23:21:00,79.0,65.3,30.01,SE,134,1.0,1.0,63,0.00,,CLR,0.00,VWS V14.01,2013-09-06 04:21:00,
2013-09-05 23:26:00,78.9,65.2,30.01,SE,143,3.0,3.0,63,0.00,,CLR,0.00,VWS V14.01,2013-09-06 04:26:00,
2013-09-05 23:31:00,78.8,65.2,30.01,SSE,155,1.0,2.0,63,0.00,,CLR,0.00,VWS V14.01,2013-09-06 04:31:00,
2013-09-05 23:36:00,78.8,65.2,30.02,SSE,148,1.0,1.0,63,0.00,,CLR,0.00,VWS V14.01,2013-09-06 04:36:00,
2013-09-05 23:41:00,78.8,65.2,30.02,SE,145,1.0,1.0,63,0.00,,CLR,0.00,VWS V14.01,2013-09-06 04:41:00,
2013-09-05 23:46:00,78.7,65.1,30.01,SE,145,2.0,4.0,63,0.00,,CLR,0.00,VWS V14.01,2013-09-06 04:46:00,
2013-09-05 23:51:00,78.8,65.2,30.01,East,92,4.0,5.0,63,0.00,,CLR,0.00,VWS V14.01,2013-09-06 04:51:00,
2013-09-05 23:56:00,78.7,65.1,30.01,East,92,1.0,1.0,63,0.00,,CLR,0.00,VWS V14.01,2013-09-06 04:56:00,